Location: Maccacari
(45.1333°N, 11.1333°E)
Time: 01:01:53
(UTC+00:00)

Tiros 1 despin weight - Pass Details

Date: 21 January 2021
Orbit: 593 x 642 km, 48.2° (Epoch: 07 March)

Event Time Altitude Azimuth Distance (km) Brightness Sun altitude
Rises 16:06:19 0° 257° (WSW) 2,869 ? -0.6°
Reaches altitude 10° 16:08:39 10° 260° (W) 1,957 ? -1.0°
Maximum altitude 16:13:08 73° 344° (NNW) 632 ? -1.7°
Drops below altitude 10° 16:17:34 10° 71° (ENE) 1,936 ? -2.4°
Enters shadow 16:19:08 - 72° (ENE) 2,547 ? -2.6°
Sets 16:19:51 0° 73° (ENE) 2,835 - -2.7°
